Location: Allos
(44.2333°N, 6.6333°E)
Time: 14:21:33
(UTC+00:00)

Helios 1A Rocket - Visible Passes

Search period start: 12 April 2021 00:00
Search period end: 22 April 2021 00:00
Orbit: 563 x 585 km, 98.3° (Epoch: 11 April)

Date Brightness Start Highest point End Pass type
(mag) Time Alt. Az. Time Alt. Az. Time Alt. Az.
12 Apr 5.4 19:46:13 10° SW 19:49:20 21° W 19:52:29 10° NW visible
13 Apr 5.5 19:49:28 10° SW 19:52:29 20° W 19:55:31 10° NW visible
14 Apr 5.6 19:52:45 10° SW 19:55:38 19° W 19:58:33 10° NW visible
15 Apr 5.7 19:56:03 10° SW 19:58:47 17° W 20:01:33 10° NW visible
16 Apr 5.7 19:59:21 10° SW 20:01:56 16° W 20:04:33 10° NW visible
17 Apr 5.7 20:02:40 10° SW 20:05:06 15° W 20:07:32 10° NW visible
18 Apr 5.8 20:06:02 10° SW 20:08:16 14° W 20:10:30 10° WNW visible
19 Apr 5.8 20:09:24 10° WSW 20:11:25 13° W 20:13:25 10° WNW visible
20 Apr 5.9 20:12:50 10° WSW 20:14:34 12° W 20:16:19 10° WNW visible
21 Apr 5.9 20:16:19 10° WSW 20:17:44 11° W 20:19:08 10° WNW visible
